Time,TemperatureF,DewpointF,PressureIn,WindDirection,WindDirectionDegrees,WindSpeedMPH,WindSpeedGustMPH,Humidity,HourlyPrecipIn,Conditions,Clouds,dailyrainin,SoftwareType,DateUTC
2013-06-11 00:04:00,81.5,69.1,29.89,SW,219,0.0,7.0,66,0.00,,---,0.00,VWS V13.01,2013-06-11 05:04:00,
2013-06-11 00:09:00,81.4,69.4,29.89,SW,219,0.0,0.0,67,0.00,,---,0.00,VWS V13.01,2013-06-11 05:09:00,
2013-06-11 00:14:00,81.2,69.2,29.89,SW,219,0.0,0.0,67,0.00,,---,0.00,VWS V13.01,2013-06-11 05:14:00,
2013-06-11 00:19:00,81.0,69.0,29.89,SW,219,0.0,0.0,67,0.00,,---,0.00,VWS V13.01,2013-06-11 05:19:00,
2013-06-11 00:24:00,80.9,69.4,29.89,SW,219,0.0,0.0,68,0.00,,---,0.00,VWS V13.01,2013-06-11 05:24:00,
2013-06-11 00:29:00,80.7,69.2,29.89,SW,219,0.0,0.0,68,0.00,,---,0.00,VWS V13.01,2013-06-11 05:29:00,
2013-06-11 00:34:00,80.5,69.0,29.89,SW,219,0.0,1.0,68,0.00,,---,0.00,VWS V13.01,2013-06-11 05:34:00,
2013-06-11 00:39:00,80.3,69.2,29.89,SW,220,0.0,0.0,69,0.00,,---,0.00,VWS V13.01,2013-06-11 05:39:00,
2013-06-11 00:44:00,80.1,69.0,29.89,SW,220,0.0,0.0,69,0.00,,---,0.00,VWS V13.01,2013-06-11 05:44:00,
2013-06-11 00:49:00,80.0,68.9,29.89,SW,220,0.0,0.0,69,0.00,,---,0.00,VWS V13.01,2013-06-11 05:49:00,
2013-06-11 00:54:00,79.8,68.7,29.90,SW,220,0.0,0.0,69,0.00,,---,0.00,VWS V13.01,2013-06-11 05:54:00,
2013-06-11 00:59:00,79.7,68.6,29.90,SW,220,0.0,0.0,69,0.00,,---,0.00,VWS V13.01,2013-06-11 05:59:00,
2013-06-11 01:04:00,79.5,68.9,29.90,SW,220,0.0,0.0,70,0.00,,---,0.00,VWS V13.01,2013-06-11 06:04:00,
2013-06-11 01:09:00,79.3,68.7,29.89,SW,219,0.0,0.0,70,0.00,,---,0.00,VWS V13.01,2013-06-11 06:09:00,
2013-06-11 01:14:00,79.2,68.6,29.90,SW,220,0.0,0.0,70,0.00,,---,0.00,VWS V13.01,2013-06-11 06:14:00,
2013-06-11 01:19:00,78.9,68.3,29.90,SW,219,0.0,0.0,70,0.00,,---,0.00,VWS V13.01,2013-06-11 06:19:00,
2013-06-11 01:24:00,78.7,68.5,29.90,SW,220,0.0,0.0,71,0.00,,---,0.00,VWS V13.01,2013-06-11 06:24:00,
2013-06-11 01:29:00,78.7,68.5,29.90,SW,220,0.0,0.0,71,0.00,,---,0.00,VWS V13.01,2013-06-11 06:29:00,
2013-06-11 01:34:00,78.5,68.7,29.90,SW,220,0.0,0.0,72,0.00,,---,0.00,VWS V13.01,2013-06-11 06:34:00,
2013-06-11 01:39:00,78.3,68.5,29.90,SW,220,0.0,0.0,72,0.00,,---,0.00,VWS V13.01,2013-06-11 06:39:00,
2013-06-11 01:44:00,78.1,68.3,29.90,SW,220,0.0,0.0,72,0.00,,---,0.00,VWS V13.01,2013-06-11 06:44:00,
2013-06-11 01:49:00,77.9,68.2,29.90,SW,220,0.0,0.0,72,0.00,,---,0.00,VWS V13.01,2013-06-11 06:49:00,
2013-06-11 01:54:00,77.7,68.4,29.90,SW,220,0.0,0.0,73,0.00,,---,0.00,VWS V13.01,2013-06-11 06:54:00,
2013-06-11 01:59:00,77.5,68.2,29.90,SW,219,0.0,0.0,73,0.00,,---,0.00,VWS V13.01,2013-06-11 06:59:00,
2013-06-11 02:05:00,77.4,68.1,29.90,SW,219,0.0,0.0,73,0.00,,---,0.00,VWS V13.01,2013-06-11 07:05:00,
2013-06-11 02:10:00,77.2,67.9,29.90,SW,220,0.0,0.0,73,0.00,,---,0.00,VWS V13.01,2013-06-11 07:10:00,
2013-06-11 02:15:00,77.0,68.1,29.90,SW,220,0.0,0.0,74,0.00,,---,0.00,VWS V13.01,2013-06-11 07:15:00,
2013-06-11 02:20:00,76.9,68.4,29.90,SW,219,0.0,0.0,75,0.00,,---,0.00,VWS V13.01,2013-06-11 07:20:00,
2013-06-11 02:25:00,76.7,68.2,29.90,SW,219,0.0,0.0,75,0.00,,---,0.00,VWS V13.01,2013-06-11 07:25:00,
2013-06-11 02:30:00,76.6,68.1,29.90,SW,220,0.0,0.0,75,0.00,,---,0.00,VWS V13.01,2013-06-11 07:30:00,
2013-06-11 02:35:00,76.5,68.0,29.90,SW,220,0.0,0.0,75,0.00,,---,0.00,VWS V13.01,2013-06-11 07:35:00,
2013-06-11 02:40:00,76.4,68.3,29.90,SW,220,0.0,0.0,76,0.00,,---,0.00,VWS V13.01,2013-06-11 07:40:00,
2013-06-11 02:45:00,76.2,68.1,29.89,SW,220,0.0,0.0,76,0.00,,---,0.00,VWS V13.01,2013-06-11 07:45:00,
2013-06-11 02:50:00,76.1,68.0,29.90,SW,220,0.0,0.0,76,0.00,,---,0.00,VWS V13.01,2013-06-11 07:50:00,
2013-06-11 02:55:00,76.0,67.9,29.90,SW,220,0.0,0.0,76,0.00,,---,0.00,VWS V13.01,2013-06-11 07:55:00,
2013-06-11 03:00:00,75.8,67.7,29.90,SW,220,0.0,0.0,76,0.00,,---,0.00,VWS V13.01,2013-06-11 08:00:00,
2013-06-11 03:05:00,75.7,68.0,29.90,SW,219,0.0,0.0,77,0.00,,---,0.00,VWS V13.01,2013-06-11 08:05:00,
2013-06-11 03:11:00,75.6,67.9,29.90,SW,220,0.0,0.0,77,0.00,,---,0.00,VWS V13.01,2013-06-11 08:11:00,
2013-06-11 03:16:00,75.4,67.7,29.90,SW,219,0.0,0.0,77,0.00,,---,0.00,VWS V13.01,2013-06-11 08:16:00,
2013-06-11 03:21:00,75.3,67.6,29.90,SW,219,0.0,0.0,77,0.00,,---,0.00,VWS V13.01,2013-06-11 08:21:00,
2013-06-11 03:26:00,75.2,67.9,29.90,SW,219,0.0,0.0,78,0.00,,---,0.00,VWS V13.01,2013-06-11 08:26:00,
2013-06-11 03:31:00,75.1,67.4,29.90,SW,220,0.0,0.0,77,0.00,,---,0.00,VWS V13.01,2013-06-11 08:31:00,
2013-06-11 03:36:00,75.0,67.7,29.90,SW,219,0.0,0.0,78,0.00,,---,0.00,VWS V13.01,2013-06-11 08:36:00,
2013-06-11 03:41:00,74.9,67.6,29.90,SW,219,0.0,0.0,78,0.00,,---,0.00,VWS V13.01,2013-06-11 08:41:00,
2013-06-11 03:46:00,74.8,67.9,29.90,SW,220,0.0,0.0,79,0.00,,---,0.00,VWS V13.01,2013-06-11 08:46:00,
2013-06-11 03:51:00,74.7,67.8,29.90,SW,220,0.0,0.0,79,0.00,,---,0.00,VWS V13.01,2013-06-11 08:51:00,
2013-06-11 03:56:00,74.5,67.6,29.90,SW,219,0.0,0.0,79,0.00,,---,0.00,VWS V13.01,2013-06-11 08:56:00,
2013-06-11 04:01:00,74.4,67.5,29.90,SW,219,0.0,0.0,79,0.00,,---,0.00,VWS V13.01,2013-06-11 09:01:00,
2013-06-11 04:06:00,74.3,67.4,29.90,SW,219,0.0,0.0,79,0.00,,---,0.00,VWS V13.01,2013-06-11 09:06:00,
2013-06-11 04:11:00,74.1,67.2,29.90,SW,220,0.0,0.0,79,0.00,,---,0.00,VWS V13.01,2013-06-11 09:11:00,
2013-06-11 04:16:00,74.0,67.4,29.90,SW,220,0.0,0.0,80,0.00,,---,0.00,VWS V13.01,2013-06-11 09:16:00,
2013-06-11 04:21:00,73.9,67.3,29.91,SW,219,0.0,0.0,80,0.00,,---,0.00,VWS V13.01,2013-06-11 09:21:00,
2013-06-11 04:27:00,73.8,67.6,29.91,SW,220,0.0,0.0,81,0.00,,---,0.00,VWS V13.01,2013-06-11 09:27:00,
2013-06-11 04:32:00,73.7,67.5,29.91,SW,220,0.0,0.0,81,0.00,,---,0.00,VWS V13.01,2013-06-11 09:32:00,
2013-06-11 04:37:00,73.5,67.3,29.91,SW,220,0.0,0.0,81,0.00,,---,0.00,VWS V13.01,2013-06-11 09:37:00,
2013-06-11 04:42:00,73.5,67.3,29.91,SW,220,0.0,0.0,81,0.00,,---,0.00,VWS V13.01,2013-06-11 09:42:00,
2013-06-11 04:47:00,73.4,67.2,29.91,SW,219,0.0,0.0,81,0.00,,---,0.00,VWS V13.01,2013-06-11 09:47:00,
2013-06-11 04:52:00,73.3,67.1,29.92,SW,220,0.0,0.0,81,0.00,,---,0.00,VWS V13.01,2013-06-11 09:52:00,
2013-06-11 04:57:00,73.2,67.0,29.92,SW,219,0.0,0.0,81,0.00,,---,0.00,VWS V13.01,2013-06-11 09:57:00,
2013-06-11 05:02:00,73.1,67.3,29.92,SW,220,0.0,0.0,82,0.00,,---,0.00,VWS V13.01,2013-06-11 10:02:00,
2013-06-11 05:07:00,73.0,67.2,29.92,SW,219,0.0,0.0,82,0.00,,---,0.00,VWS V13.01,2013-06-11 10:07:00,
2013-06-11 05:12:00,72.9,67.1,29.92,SW,219,0.0,0.0,82,0.00,,---,0.00,VWS V13.01,2013-06-11 10:12:00,
2013-06-11 05:17:00,72.8,67.0,29.92,SW,219,0.0,0.0,82,0.00,,---,0.00,VWS V13.01,2013-06-11 10:17:00,
2013-06-11 05:22:00,72.8,67.3,29.93,SW,219,0.0,0.0,83,0.00,,---,0.00,VWS V13.01,2013-06-11 10:22:00,
2013-06-11 05:27:00,72.7,67.2,29.93,SW,219,0.0,1.0,83,0.00,,---,0.00,VWS V13.01,2013-06-11 10:27:00,
2013-06-11 05:32:00,72.6,67.5,29.93,SW,215,0.0,1.0,84,0.00,,---,0.00,VWS V13.01,2013-06-11 10:32:00,
2013-06-11 05:37:00,72.6,67.5,29.93,West,263,0.0,0.0,84,0.00,,---,0.00,VWS V13.01,2013-06-11 10:37:00,
2013-06-11 05:42:00,72.5,67.4,29.93,West,263,0.0,0.0,84,0.00,,---,0.00,VWS V13.01,2013-06-11 10:42:00,
2013-06-11 05:47:00,72.5,67.4,29.94,West,263,0.0,0.0,84,0.00,,---,0.00,VWS V13.01,2013-06-11 10:47:00,
2013-06-11 05:52:00,72.4,67.6,29.94,West,263,0.0,0.0,85,0.00,,---,0.00,VWS V13.01,2013-06-11 10:52:00,
2013-06-11 05:58:00,72.3,67.5,29.94,WSW,244,0.0,1.0,85,0.00,,---,0.00,VWS V13.01,2013-06-11 10:58:00,
2013-06-11 06:03:00,72.3,67.5,29.94,WSW,243,0.0,1.0,85,0.00,,---,0.00,VWS V13.01,2013-06-11 11:03:00,
2013-06-11 06:08:00,72.2,67.4,29.94,WSW,238,0.0,0.0,85,0.00,,---,0.00,VWS V13.01,2013-06-11 11:08:00,
2013-06-11 06:13:00,72.2,67.4,29.94,SW,233,0.0,0.0,85,0.00,,---,0.00,VWS V13.01,2013-06-11 11:13:00,
2013-06-11 06:18:00,72.1,67.3,29.94,SW,233,0.0,0.0,85,0.00,,---,0.00,VWS V13.01,2013-06-11 11:18:00,
2013-06-11 06:23:00,72.1,67.7,29.95,SW,233,0.0,0.0,86,0.00,,---,0.00,VWS V13.01,2013-06-11 11:23:00,
2013-06-11 06:28:00,72.1,67.7,29.95,SW,233,0.0,0.0,86,0.00,,---,0.00,VWS V13.01,2013-06-11 11:28:00,
2013-06-11 06:33:00,72.1,67.7,29.95,WNW,287,0.0,1.0,86,0.00,,---,0.00,VWS V13.01,2013-06-11 11:33:00,
2013-06-11 06:38:00,72.1,67.7,29.95,ENE,65,0.0,2.0,86,0.00,,---,0.00,VWS V13.01,2013-06-11 11:38:00,
2013-06-11 06:43:00,72.2,68.1,29.96,East,98,0.0,3.0,87,0.00,,---,0.00,VWS V13.01,2013-06-11 11:43:00,
2013-06-11 06:48:00,72.2,68.1,29.96,East,98,0.0,3.0,87,0.00,,---,0.00,VWS V13.01,2013-06-11 11:48:00,
2013-06-11 06:53:00,72.2,68.1,29.96,ESE,114,0.0,3.0,87,0.00,,---,0.00,VWS V13.01,2013-06-11 11:53:00,
2013-06-11 06:58:00,72.3,68.2,29.96,SSE,150,0.0,3.0,87,0.00,,---,0.00,VWS V13.01,2013-06-11 11:58:00,
2013-06-11 07:03:00,72.5,68.4,29.96,SSE,157,0.0,3.0,87,0.00,,---,0.00,VWS V13.01,2013-06-11 12:03:00,
2013-06-11 07:08:00,72.5,68.4,29.96,SSE,158,0.0,0.0,87,0.00,,---,0.00,VWS V13.01,2013-06-11 12:08:00,
2013-06-11 07:13:00,72.6,68.5,29.97,SSE,158,0.0,0.0,87,0.00,,---,0.00,VWS V13.01,2013-06-11 12:13:00,
2013-06-11 07:18:00,72.8,68.7,29.96,SSE,157,0.0,1.0,87,0.00,,---,0.00,VWS V13.01,2013-06-11 12:18:00,
2013-06-11 07:23:00,73.0,68.9,29.97,SSE,158,0.0,1.0,87,0.00,,---,0.00,VWS V13.01,2013-06-11 12:23:00,
2013-06-11 07:28:00,73.3,69.2,29.97,SSE,158,0.0,3.0,87,0.00,,---,0.00,VWS V13.01,2013-06-11 12:28:00,
2013-06-11 07:34:00,73.7,69.6,29.97,South,175,0.0,3.0,87,0.00,,---,0.00,VWS V13.01,2013-06-11 12:34:00,
2013-06-11 07:39:00,74.0,69.6,29.97,South,175,0.0,0.0,86,0.00,,---,0.00,VWS V13.01,2013-06-11 12:39:00,
2013-06-11 07:44:00,74.5,70.0,29.97,South,175,0.0,0.0,86,0.00,,---,0.00,VWS V13.01,2013-06-11 12:44:00,
2013-06-11 07:49:00,75.1,70.3,29.97,ENE,77,0.0,1.0,85,0.00,,---,0.00,VWS V13.01,2013-06-11 12:49:00,
2013-06-11 07:54:00,75.6,70.4,29.97,ENE,78,0.0,1.0,84,0.00,,---,0.00,VWS V13.01,2013-06-11 12:54:00,
2013-06-11 07:59:00,76.0,70.5,29.98,NW,312,0.0,1.0,83,0.00,,---,0.00,VWS V13.01,2013-06-11 12:59:00,
2013-06-11 08:04:00,76.4,70.5,29.98,SSW,200,0.0,1.0,82,0.00,,---,0.00,VWS V13.01,2013-06-11 13:04:00,
2013-06-11 08:09:00,76.8,70.5,29.98,SSW,200,1.0,1.0,81,0.00,,---,0.00,VWS V13.01,2013-06-11 13:09:00,
2013-06-11 08:14:00,77.2,70.2,29.98,South,190,0.0,4.0,79,0.00,,---,0.00,VWS V13.01,2013-06-11 13:14:00,
2013-06-11 08:19:00,77.5,70.5,29.98,South,190,0.0,4.0,79,0.00,,---,0.00,VWS V13.01,2013-06-11 13:19:00,
2013-06-11 08:24:00,77.8,70.4,29.98,South,190,0.0,4.0,78,0.00,,---,0.00,VWS V13.01,2013-06-11 13:24:00,
2013-06-11 08:29:00,78.1,70.3,29.98,South,190,0.0,4.0,77,0.00,,---,0.00,VWS V13.01,2013-06-11 13:29:00,
2013-06-11 08:34:00,78.5,70.7,29.98,South,190,0.0,4.0,77,0.00,,---,0.00,VWS V13.01,2013-06-11 13:34:00,
2013-06-11 08:39:00,78.7,70.9,29.98,South,190,0.0,3.0,77,0.00,,---,0.00,VWS V13.01,2013-06-11 13:39:00,
2013-06-11 08:44:00,78.8,70.6,29.99,South,190,0.0,3.0,76,0.00,,---,0.00,VWS V13.01,2013-06-11 13:44:00,
2013-06-11 08:49:00,79.1,70.5,29.99,South,190,0.0,3.0,75,0.00,,---,0.00,VWS V13.01,2013-06-11 13:49:00,
2013-06-11 08:54:00,79.3,70.7,29.99,South,190,0.0,3.0,75,0.00,,---,0.00,VWS V13.01,2013-06-11 13:54:00,
2013-06-11 08:59:00,79.6,71.8,29.99,South,190,0.0,3.0,77,0.00,,---,0.00,VWS V13.01,2013-06-11 13:59:00,
2013-06-11 09:05:00,79.9,72.4,29.99,South,190,0.0,3.0,78,0.00,,---,0.00,VWS V13.01,2013-06-11 14:05:00,
2013-06-11 09:10:00,80.1,72.2,29.99,SSW,200,0.0,1.0,77,0.00,,---,0.00,VWS V13.01,2013-06-11 14:10:00,
2013-06-11 09:15:00,80.3,72.4,29.99,SSW,200,0.0,1.0,77,0.00,,---,0.00,VWS V13.01,2013-06-11 14:15:00,
2013-06-11 09:20:00,80.5,72.2,29.99,SSW,200,0.0,1.0,76,0.00,,---,0.00,VWS V13.01,2013-06-11 14:20:00,
2013-06-11 09:25:00,80.8,72.5,29.99,SSW,200,1.0,1.0,76,0.00,,---,0.00,VWS V13.01,2013-06-11 14:25:00,
2013-06-11 09:30:00,81.1,72.4,29.99,SSW,200,0.0,2.0,75,0.00,,---,0.00,VWS V13.01,2013-06-11 14:30:00,
2013-06-11 09:35:00,81.4,73.1,29.99,SSW,200,0.0,2.0,76,0.00,,---,0.00,VWS V13.01,2013-06-11 14:35:00,
2013-06-11 09:40:00,81.7,73.0,29.99,SSW,200,0.0,1.0,75,0.00,,---,0.00,VWS V13.01,2013-06-11 14:40:00,
2013-06-11 09:45:00,82.0,73.3,29.98,SSW,199,0.0,1.0,75,0.00,,---,0.00,VWS V13.01,2013-06-11 14:45:00,
2013-06-11 09:50:00,82.4,73.7,29.98,East,85,0.0,3.0,75,0.00,,---,0.00,VWS V13.01,2013-06-11 14:50:00,
2013-06-11 09:55:00,82.8,73.7,29.98,East,85,1.0,3.0,74,0.00,,---,0.00,VWS V13.01,2013-06-11 14:55:00,
2013-06-11 10:00:00,83.1,73.6,29.99,East,86,0.0,3.0,73,0.00,,---,0.00,VWS V13.01,2013-06-11 15:00:00,
2013-06-11 10:06:00,83.3,73.3,29.99,East,86,0.0,3.0,72,0.00,,---,0.00,VWS V13.01,2013-06-11 15:06:00,
2013-06-11 10:11:00,83.6,72.8,29.99,WSW,238,0.0,3.0,70,0.00,,---,0.00,VWS V13.01,2013-06-11 15:11:00,
2013-06-11 10:16:00,83.7,72.9,29.99,WSW,238,0.0,3.0,70,0.00,,---,0.00,VWS V13.01,2013-06-11 15:16:00,
2013-06-11 10:21:00,83.8,72.6,29.99,WSW,237,0.0,3.0,69,0.00,,---,0.00,VWS V13.01,2013-06-11 15:21:00,
2013-06-11 10:26:00,84.0,71.9,29.99,SW,236,2.0,3.0,67,0.00,,---,0.00,VWS V13.01,2013-06-11 15:26:00,
2013-06-11 10:31:00,84.2,72.1,29.99,SSW,193,0.0,4.0,67,0.00,,---,0.00,VWS V13.01,2013-06-11 15:31:00,
2013-06-11 10:36:00,84.3,72.6,29.98,SW,236,0.0,5.0,68,0.00,,---,0.00,VWS V13.01,2013-06-11 15:36:00,
2013-06-11 10:41:00,84.7,73.4,29.98,SW,236,0.0,0.0,69,0.00,,---,0.00,VWS V13.01,2013-06-11 15:41:00,
2013-06-11 10:46:00,85.1,74.2,29.99,SW,236,0.0,1.0,70,0.00,,---,0.00,VWS V13.01,2013-06-11 15:46:00,
2013-06-11 10:51:00,85.4,73.6,29.99,SW,236,0.0,2.0,68,0.00,,---,0.00,VWS V13.01,2013-06-11 15:51:00,
2013-06-11 10:56:00,85.7,73.5,29.98,SW,235,0.0,3.0,67,0.00,,---,0.00,VWS V13.01,2013-06-11 15:56:00,
2013-06-11 11:02:00,86.1,74.3,29.98,SW,229,3.0,4.0,68,0.00,,---,0.00,VWS V13.01,2013-06-11 16:02:00,
2013-06-11 11:07:00,86.1,73.4,29.98,SW,223,0.0,0.0,66,0.00,,---,0.00,VWS V13.01,2013-06-11 16:07:00,
2013-06-11 11:12:00,86.3,73.6,29.98,SW,219,2.0,3.0,66,0.00,,---,0.00,VWS V13.01,2013-06-11 16:12:00,
2013-06-11 11:17:00,86.5,73.8,29.98,SSW,198,0.0,4.0,66,0.00,,---,0.00,VWS V13.01,2013-06-11 16:17:00,
2013-06-11 11:22:00,86.6,73.4,29.99,SSW,197,0.0,4.0,65,0.00,,---,0.00,VWS V13.01,2013-06-11 16:22:00,
2013-06-11 11:27:00,86.8,72.7,29.99,SSW,197,0.0,4.0,63,0.00,,---,0.00,VWS V13.01,2013-06-11 16:27:00,
2013-06-11 11:32:00,86.9,72.3,29.99,South,181,3.0,4.0,62,0.00,,---,0.00,VWS V13.01,2013-06-11 16:32:00,
2013-06-11 11:37:00,87.1,73.0,29.99,South,180,0.0,0.0,63,0.00,,---,0.00,VWS V13.01,2013-06-11 16:37:00,
2013-06-11 11:42:00,87.6,73.0,29.99,SSE,161,0.0,2.0,62,0.00,,---,0.00,VWS V13.01,2013-06-11 16:42:00,
2013-06-11 11:47:00,88.3,73.6,29.99,South,180,0.0,3.0,62,0.00,,---,0.00,VWS V13.01,2013-06-11 16:47:00,
2013-06-11 11:52:00,88.8,73.1,29.99,SSW,194,0.0,4.0,60,0.00,,---,0.00,VWS V13.01,2013-06-11 16:52:00,
2013-06-11 11:58:00,89.1,72.9,29.99,SW,224,2.0,5.0,59,0.00,,---,0.00,VWS V13.01,2013-06-11 16:58:00,
2013-06-11 12:03:00,89.3,74.1,29.99,SW,227,0.0,5.0,61,0.00,,---,0.00,VWS V13.01,2013-06-11 17:03:00,
2013-06-11 12:08:00,89.6,74.9,29.99,West,265,0.0,0.0,62,0.00,,---,0.00,VWS V13.01,2013-06-11 17:08:00,
2013-06-11 12:13:00,89.9,74.7,29.98,South,180,1.0,4.0,61,0.00,,---,0.00,VWS V13.01,2013-06-11 17:13:00,
2013-06-11 12:18:00,90.0,73.2,29.98,SSE,164,0.0,5.0,58,0.00,,---,0.00,VWS V13.01,2013-06-11 17:18:00,
2013-06-11 12:23:00,90.4,75.1,29.98,SSW,198,1.0,5.0,61,0.00,,---,0.00,VWS V13.01,2013-06-11 17:23:00,
2013-06-11 12:28:00,90.5,72.1,29.98,South,191,0.0,11.0,55,0.00,,---,0.00,VWS V13.01,2013-06-11 17:28:00,
2013-06-11 12:33:00,90.6,72.8,29.98,WSW,239,3.0,11.0,56,0.00,,---,0.00,VWS V13.01,2013-06-11 17:33:00,
2013-06-11 12:38:00,90.8,73.5,29.97,South,179,1.0,3.0,57,0.00,,---,0.00,VWS V13.01,2013-06-11 17:38:00,
2013-06-11 12:43:00,91.0,73.7,29.98,SSW,207,0.0,15.0,57,0.00,,---,0.00,VWS V13.01,2013-06-11 17:43:00,
2013-06-11 12:48:00,90.8,72.9,29.98,SW,225,6.0,15.0,56,0.00,,---,0.00,VWS V13.01,2013-06-11 17:48:00,
2013-06-11 12:53:00,90.8,73.5,29.97,SW,230,1.0,15.0,57,0.00,,---,0.00,VWS V13.01,2013-06-11 17:53:00,
2013-06-11 12:58:00,90.7,71.8,29.97,SW,234,6.0,15.0,54,0.00,,---,0.00,VWS V13.01,2013-06-11 17:58:00,
2013-06-11 13:03:00,90.8,72.9,29.97,West,271,3.0,15.0,56,0.00,,---,0.00,VWS V13.01,2013-06-11 18:03:00,
2013-06-11 13:08:00,91.8,71.1,29.98,SW,229,1.0,4.0,51,0.00,,---,0.00,VWS V13.01,2013-06-11 18:08:00,
2013-06-11 13:13:00,92.6,71.3,29.97,West,272,0.0,7.0,50,0.00,,---,0.00,VWS V13.01,2013-06-11 18:13:00,
2013-06-11 13:18:00,93.0,71.6,29.97,South,182,4.0,9.0,50,0.00,,---,0.00,VWS V13.01,2013-06-11 18:18:00,
2013-06-11 13:23:00,93.4,73.2,29.97,SW,223,0.0,9.0,52,0.00,,---,0.00,VWS V13.01,2013-06-11 18:23:00,
2013-06-11 13:29:00,93.4,74.3,29.97,SW,218,0.0,9.0,54,0.00,,---,0.00,VWS V13.01,2013-06-11 18:29:00,
2013-06-11 13:34:00,93.3,73.6,29.97,SSW,194,0.0,9.0,53,0.00,,---,0.00,VWS V13.01,2013-06-11 18:34:00,
2013-06-11 13:39:00,92.8,74.3,29.97,SSE,161,0.0,5.0,55,0.00,,---,0.00,VWS V13.01,2013-06-11 18:39:00,
2013-06-11 13:44:00,92.7,73.6,29.97,SSW,195,0.0,10.0,54,0.00,,---,0.00,VWS V13.01,2013-06-11 18:44:00,
2013-06-11 13:49:00,92.8,75.9,29.97,SW,231,0.0,10.0,58,0.00,,---,0.00,VWS V13.01,2013-06-11 18:49:00,
2013-06-11 14:06:00,93.0,74.5,29.96,South,187,4.0,10.0,55,0.00,,---,0.00,VWS V13.01,2013-06-11 19:06:00,
2013-06-11 14:36:00,94.9,74.5,29.95,SSW,192,0.0,10.0,52,0.00,,---,0.00,VWS V13.01,2013-06-11 19:36:00,
2013-06-11 14:53:00,95.4,74.4,29.94,South,173,0.0,7.0,51,0.00,,---,0.00,VWS V13.01,2013-06-11 19:53:00,
2013-06-11 14:58:00,95.4,73.2,29.94,SW,219,0.0,7.0,49,0.00,,---,0.00,VWS V13.01,2013-06-11 19:58:00,
2013-06-11 15:03:00,95.6,73.4,29.94,WSW,239,5.0,7.0,49,0.00,,---,0.00,VWS V13.01,2013-06-11 20:03:00,
2013-06-11 15:08:00,95.6,72.8,29.94,South,178,4.0,10.0,48,0.00,,---,0.00,VWS V13.01,2013-06-11 20:08:00,
2013-06-11 15:13:00,96.1,72.6,29.94,SW,232,3.0,11.0,47,0.00,,---,0.00,VWS V13.01,2013-06-11 20:13:00,
2013-06-11 15:18:00,95.7,72.9,29.94,SW,215,1.0,11.0,48,0.00,,---,0.00,VWS V13.01,2013-06-11 20:18:00,
2013-06-11 15:23:00,96.0,72.5,29.94,SW,236,0.0,11.0,47,0.00,,---,0.00,VWS V13.01,2013-06-11 20:23:00,
2013-06-11 15:28:00,96.0,71.9,29.94,SW,223,6.0,11.0,46,0.00,,---,0.00,VWS V13.01,2013-06-11 20:28:00,
2013-06-11 15:33:00,96.0,72.5,29.94,SW,226,5.0,14.0,47,0.00,,---,0.00,VWS V13.01,2013-06-11 20:33:00,
2013-06-11 15:38:00,96.3,72.8,29.94,SW,224,0.0,12.0,47,0.00,,---,0.00,VWS V13.01,2013-06-11 20:38:00,
2013-06-11 15:43:00,96.6,71.8,29.93,SSW,209,0.0,12.0,45,0.00,,---,0.00,VWS V13.01,2013-06-11 20:43:00,
2013-06-11 15:48:00,96.2,72.7,29.93,SW,216,4.0,12.0,47,0.00,,---,0.00,VWS V13.01,2013-06-11 20:48:00,
2013-06-11 15:53:00,96.3,74.0,29.93,South,186,0.0,12.0,49,0.00,,---,0.00,VWS V13.01,2013-06-11 20:53:00,
2013-06-11 15:59:00,96.3,72.8,29.93,WSW,240,0.0,12.0,47,0.00,,---,0.00,VWS V13.01,2013-06-11 20:59:00,
2013-06-11 16:04:00,96.3,71.5,29.93,SSE,151,1.0,12.0,45,0.00,,---,0.00,VWS V13.01,2013-06-11 21:04:00,
2013-06-11 16:09:00,95.9,71.2,29.93,SW,219,0.0,3.0,45,0.00,,---,0.00,VWS V13.01,2013-06-11 21:09:00,
2013-06-11 16:14:00,96.2,72.1,29.93,SW,219,0.0,6.0,46,0.00,,---,0.00,VWS V13.01,2013-06-11 21:14:00,
2013-06-11 16:19:00,96.2,72.7,29.93,SW,225,1.0,7.0,47,0.00,,---,0.00,VWS V13.01,2013-06-11 21:19:00,
2013-06-11 16:24:00,95.9,74.9,29.93,South,182,0.0,7.0,51,0.00,,---,0.00,VWS V13.01,2013-06-11 21:24:00,
2013-06-11 16:29:00,95.9,73.7,29.92,West,263,0.0,7.0,49,0.00,,---,0.00,VWS V13.01,2013-06-11 21:29:00,
2013-06-11 16:34:00,96.1,72.6,29.92,SW,221,4.0,7.0,47,0.00,,---,0.00,VWS V13.01,2013-06-11 21:34:00,
2013-06-11 16:39:00,95.8,72.3,29.92,SW,214,1.0,5.0,47,0.00,,---,0.00,VWS V13.01,2013-06-11 21:39:00,
2013-06-11 16:44:00,94.9,70.9,29.92,SW,234,0.0,6.0,46,0.00,,---,0.00,VWS V13.01,2013-06-11 21:44:00,
2013-06-11 16:49:00,94.6,73.1,29.92,WSW,245,4.0,7.0,50,0.00,,---,0.00,VWS V13.01,2013-06-11 21:49:00,
2013-06-11 16:54:00,94.4,72.3,29.92,SW,230,0.0,9.0,49,0.00,,---,0.00,VWS V13.01,2013-06-11 21:54:00,
2013-06-11 16:59:00,94.2,72.1,29.92,WSW,238,3.0,9.0,49,0.00,,---,0.00,VWS V13.01,2013-06-11 21:59:00,
2013-06-11 17:04:00,94.4,71.7,29.92,SW,231,0.0,9.0,48,0.00,,---,0.00,VWS V13.01,2013-06-11 22:04:00,
2013-06-11 17:09:00,95.5,72.1,29.91,SW,217,0.0,7.0,47,0.00,,---,0.00,VWS V13.01,2013-06-11 22:09:00,
2013-06-11 17:14:00,95.2,72.4,29.91,SW,218,0.0,7.0,48,0.00,,---,0.00,VWS V13.01,2013-06-11 22:14:00,
2013-06-11 17:19:00,95.0,72.9,29.91,SSW,209,0.0,7.0,49,0.00,,---,0.00,VWS V13.01,2013-06-11 22:19:00,
2013-06-11 17:24:00,95.0,71.6,29.91,SW,232,0.0,9.0,47,0.00,,---,0.00,VWS V13.01,2013-06-11 22:24:00,
2013-06-11 17:29:00,94.3,72.8,29.91,SW,221,0.0,9.0,50,0.00,,---,0.00,VWS V13.01,2013-06-11 22:29:00,
2013-06-11 17:34:00,93.5,72.1,29.91,SSW,198,2.0,9.0,50,0.00,,---,0.00,VWS V13.01,2013-06-11 22:34:00,
2013-06-11 17:39:00,93.5,72.7,29.91,WSW,237,4.0,5.0,51,0.00,,---,0.00,VWS V13.01,2013-06-11 22:39:00,
2013-06-11 17:44:00,93.4,72.6,29.91,SSW,198,1.0,11.0,51,0.00,,---,0.00,VWS V13.01,2013-06-11 22:44:00,
2013-06-11 17:49:00,93.1,72.9,29.91,South,176,1.0,11.0,52,0.00,,---,0.00,VWS V13.01,2013-06-11 22:49:00,
2013-06-11 17:54:00,93.0,72.2,29.91,SSW,196,0.0,11.0,51,0.00,,---,0.00,VWS V13.01,2013-06-11 22:54:00,
2013-06-11 17:59:00,92.7,71.9,29.91,WSW,238,4.0,11.0,51,0.00,,---,0.00,VWS V13.01,2013-06-11 22:59:00,
2013-06-11 18:04:00,92.7,72.5,29.91,South,190,3.0,11.0,52,0.00,,---,0.00,VWS V13.01,2013-06-11 23:04:00,
2013-06-11 18:10:00,92.7,71.9,29.91,South,180,2.0,10.0,51,0.00,,---,0.00,VWS V13.01,2013-06-11 23:10:00,
2013-06-11 18:15:00,92.7,71.9,29.90,SW,234,0.0,10.0,51,0.00,,---,0.00,VWS V13.01,2013-06-11 23:15:00,
2013-06-11 18:20:00,92.7,71.9,29.91,SSW,196,1.0,10.0,51,0.00,,---,0.00,VWS V13.01,2013-06-11 23:20:00,
2013-06-11 18:25:00,92.7,71.9,29.90,SW,234,1.0,10.0,51,0.00,,---,0.00,VWS V13.01,2013-06-11 23:25:00,
2013-06-11 18:30:00,92.6,72.4,29.90,SSW,200,3.0,10.0,52,0.00,,---,0.00,VWS V13.01,2013-06-11 23:30:00,
2013-06-11 18:35:00,92.4,72.2,29.90,South,184,0.0,10.0,52,0.00,,---,0.00,VWS V13.01,2013-06-11 23:35:00,
2013-06-11 18:40:00,92.2,71.5,29.90,South,189,0.0,13.0,51,0.00,,---,0.00,VWS V13.01,2013-06-11 23:40:00,
2013-06-11 18:45:00,92.0,71.9,29.91,SSW,207,4.0,13.0,52,0.00,,---,0.00,VWS V13.01,2013-06-11 23:45:00,
2013-06-11 18:50:00,91.8,71.7,29.91,SSW,203,0.0,13.0,52,0.00,,---,0.00,VWS V13.01,2013-06-11 23:50:00,
2013-06-11 18:55:00,91.5,72.0,29.91,SSW,209,4.0,13.0,53,0.00,,---,0.00,VWS V13.01,2013-06-11 23:55:00,
2013-06-11 19:00:00,90.8,71.9,29.91,SSW,210,0.0,13.0,54,0.00,,---,0.00,VWS V13.01,2013-06-12 00:00:00,
2013-06-11 19:05:00,90.8,71.3,29.91,SW,221,2.0,13.0,53,0.00,,---,0.00,VWS V13.01,2013-06-12 00:05:00,
2013-06-11 19:10:00,90.7,70.7,29.91,SW,225,0.0,7.0,52,0.00,,---,0.00,VWS V13.01,2013-06-12 00:10:00,
2013-06-11 19:15:00,90.6,71.1,29.91,SW,215,0.0,7.0,53,0.00,,---,0.00,VWS V13.01,2013-06-12 00:15:00,
2013-06-11 19:21:00,90.3,70.9,29.91,SW,218,0.0,7.0,53,0.00,,---,0.00,VWS V13.01,2013-06-12 00:21:00,
2013-06-11 19:26:00,90.1,70.7,29.91,SW,232,0.0,8.0,53,0.00,,---,0.00,VWS V13.01,2013-06-12 00:26:00,
2013-06-11 19:31:00,90.0,70.6,29.91,SW,230,2.0,8.0,53,0.00,,---,0.00,VWS V13.01,2013-06-12 00:31:00,
2013-06-11 19:36:00,89.9,71.0,29.91,SW,217,0.0,8.0,54,0.00,,---,0.00,VWS V13.01,2013-06-12 00:36:00,
2013-06-11 19:41:00,89.5,71.2,29.91,SSW,202,0.0,4.0,55,0.00,,---,0.00,VWS V13.01,2013-06-12 00:41:00,
2013-06-11 19:46:00,89.2,72.0,29.91,SSW,201,0.0,4.0,57,0.00,,---,0.00,VWS V13.01,2013-06-12 00:46:00,
2013-06-11 19:51:00,89.0,72.3,29.91,SSE,158,0.0,6.0,58,0.00,,---,0.00,VWS V13.01,2013-06-12 00:51:00,
2013-06-11 19:56:00,88.9,72.7,29.91,South,171,0.0,6.0,59,0.00,,---,0.00,VWS V13.01,2013-06-12 00:56:00,
2013-06-11 20:01:00,88.7,72.5,29.91,SW,219,3.0,7.0,59,0.00,,---,0.00,VWS V13.01,2013-06-12 01:01:00,
2013-06-11 20:06:00,88.3,72.7,29.92,South,190,1.0,7.0,60,0.00,,---,0.00,VWS V13.01,2013-06-12 01:06:00,
2013-06-11 20:11:00,87.9,72.3,29.91,SSW,209,0.0,7.0,60,0.00,,---,0.00,VWS V13.01,2013-06-12 01:11:00,
2013-06-11 20:17:00,87.6,72.0,29.92,SSW,194,0.0,7.0,60,0.00,,---,0.00,VWS V13.01,2013-06-12 01:17:00,
2013-06-11 20:22:00,87.3,72.2,29.92,South,184,0.0,7.0,61,0.00,,---,0.00,VWS V13.01,2013-06-12 01:22:00,
2013-06-11 20:27:00,87.0,71.9,29.92,South,177,4.0,7.0,61,0.00,,---,0.00,VWS V13.01,2013-06-12 01:27:00,
2013-06-11 20:32:00,86.7,72.1,29.92,South,174,0.0,7.0,62,0.00,,---,0.00,VWS V13.01,2013-06-12 01:32:00,
2013-06-11 20:37:00,86.4,71.8,29.92,SSW,206,0.0,6.0,62,0.00,,---,0.00,VWS V13.01,2013-06-12 01:37:00,
2013-06-11 20:42:00,86.3,71.8,29.92,SSW,213,4.0,6.0,62,0.00,,---,0.00,VWS V13.01,2013-06-12 01:42:00,
2013-06-11 20:47:00,86.1,72.0,29.92,South,178,2.0,7.0,63,0.00,,---,0.00,VWS V13.01,2013-06-12 01:47:00,
2013-06-11 20:52:00,85.9,71.8,29.93,South,187,0.0,7.0,63,0.00,,---,0.00,VWS V13.01,2013-06-12 01:52:00,
2013-06-11 20:57:00,85.7,72.1,29.93,SSW,194,0.0,9.0,64,0.00,,---,0.00,VWS V13.01,2013-06-12 01:57:00,
2013-06-11 21:02:00,85.4,71.8,29.93,South,172,0.0,9.0,64,0.00,,---,0.00,VWS V13.01,2013-06-12 02:02:00,
2013-06-11 21:07:00,85.1,71.6,29.93,SW,226,6.0,7.0,64,0.00,,---,0.00,VWS V13.01,2013-06-12 02:07:00,
2013-06-11 21:12:00,84.8,71.7,29.93,WSW,242,1.0,7.0,65,0.00,,---,0.00,VWS V13.01,2013-06-12 02:12:00,
2013-06-11 21:18:00,84.8,71.7,29.93,SW,227,4.0,9.0,65,0.00,,---,0.00,VWS V13.01,2013-06-12 02:18:00,
2013-06-11 21:23:00,84.8,72.2,29.93,SW,221,0.0,9.0,66,0.00,,---,0.00,VWS V13.01,2013-06-12 02:23:00,
2013-06-11 21:28:00,84.6,72.0,29.94,South,171,0.0,9.0,66,0.00,,---,0.00,VWS V13.01,2013-06-12 02:28:00,
2013-06-11 21:33:00,84.6,72.0,29.94,SSW,195,0.0,9.0,66,0.00,,---,0.00,VWS V13.01,2013-06-12 02:33:00,
2013-06-11 21:38:00,84.5,71.4,29.93,SW,224,0.0,6.0,65,0.00,,---,0.00,VWS V13.01,2013-06-12 02:38:00,
2013-06-11 21:43:00,84.3,71.7,29.94,SW,223,0.0,7.0,66,0.00,,---,0.00,VWS V13.01,2013-06-12 02:43:00,
2013-06-11 21:48:00,84.1,71.5,29.94,South,183,0.0,11.0,66,0.00,,---,0.00,VWS V13.01,2013-06-12 02:48:00,
2013-06-11 21:53:00,83.8,71.7,29.94,SSW,198,0.0,11.0,67,0.00,,---,0.00,VWS V13.01,2013-06-12 02:53:00,
2013-06-11 21:58:00,83.6,71.5,29.95,SW,229,10.0,11.0,67,0.00,,---,0.00,VWS V13.01,2013-06-12 02:58:00,
2013-06-11 22:03:00,83.4,71.7,29.95,SW,227,0.0,11.0,68,0.00,,---,0.00,VWS V13.01,2013-06-12 03:03:00,
2013-06-11 22:08:00,83.2,71.6,29.95,South,173,0.0,7.0,68,0.00,,---,0.00,VWS V13.01,2013-06-12 03:08:00,
2013-06-11 22:13:00,83.1,71.4,29.95,SSW,207,0.0,7.0,68,0.00,,---,0.00,VWS V13.01,2013-06-12 03:13:00,
2013-06-11 22:18:00,83.1,71.9,29.95,SSE,157,4.0,7.0,69,0.00,,---,0.00,VWS V13.01,2013-06-12 03:18:00,
2013-06-11 22:24:00,83.1,71.9,29.95,South,173,0.0,11.0,69,0.00,,---,0.00,VWS V13.01,2013-06-12 03:24:00,
2013-06-11 22:29:00,83.2,71.6,29.95,SW,226,0.0,11.0,68,0.00,,---,0.00,VWS V13.01,2013-06-12 03:29:00,
2013-06-11 22:34:00,83.0,71.8,29.95,SW,225,0.0,11.0,69,0.00,,---,0.00,VWS V13.01,2013-06-12 03:34:00,
2013-06-11 22:39:00,82.9,71.7,29.95,SW,216,0.0,3.0,69,0.00,,---,0.00,VWS V13.01,2013-06-12 03:39:00,
2013-06-11 22:44:00,82.8,71.6,29.95,SSW,209,0.0,5.0,69,0.00,,---,0.00,VWS V13.01,2013-06-12 03:44:00,
2013-06-11 22:49:00,82.7,71.5,29.95,SSW,208,0.0,5.0,69,0.00,,---,0.00,VWS V13.01,2013-06-12 03:49:00,
2013-06-11 22:54:00,82.5,71.7,29.95,SSW,207,0.0,5.0,70,0.00,,---,0.00,VWS V13.01,2013-06-12 03:54:00,
2013-06-11 22:59:00,82.3,71.5,29.95,SSW,208,0.0,5.0,70,0.00,,---,0.00,VWS V13.01,2013-06-12 03:59:00,
2013-06-11 23:01:00,82.3,71.5,29.95,SSW,208,0.0,5.0,70,0.00,,---,0.00,VWS V13.01,2013-06-12 04:01:00,
2013-06-11 23:04:00,82.1,71.3,29.95,SSW,207,0.0,5.0,70,0.00,,---,0.00,VWS V13.01,2013-06-12 04:04:00,
2013-06-11 23:09:00,82.0,71.7,29.95,SSW,208,0.0,0.0,71,0.00,,---,0.00,VWS V13.01,2013-06-12 04:09:00,
2013-06-11 23:14:00,81.7,71.4,29.95,SSW,208,0.0,0.0,71,0.00,,---,0.00,VWS V13.01,2013-06-12 04:14:00,
2013-06-11 23:19:00,81.5,71.2,29.95,SSW,208,0.0,0.0,71,0.00,,---,0.00,VWS V13.01,2013-06-12 04:19:00,
2013-06-11 23:24:00,81.3,71.0,29.95,SSW,208,0.0,0.0,71,0.00,,---,0.00,VWS V13.01,2013-06-12 04:24:00,
2013-06-11 23:29:00,81.1,71.2,29.95,SSW,208,0.0,0.0,72,0.00,,---,0.00,VWS V13.01,2013-06-12 04:29:00,
2013-06-11 23:34:00,80.9,71.0,29.95,SSW,208,0.0,0.0,72,0.00,,---,0.00,VWS V13.01,2013-06-12 04:34:00,
2013-06-11 23:39:00,80.7,71.2,29.95,SSW,208,0.0,0.0,73,0.00,,---,0.00,VWS V13.01,2013-06-12 04:39:00,
2013-06-11 23:44:00,80.6,71.2,29.95,SSW,207,0.0,0.0,73,0.00,,---,0.00,VWS V13.01,2013-06-12 04:44:00,
2013-06-11 23:49:00,80.4,71.0,29.96,SSW,207,0.0,0.0,73,0.00,,---,0.00,VWS V13.01,2013-06-12 04:49:00,
2013-06-11 23:54:00,80.2,70.8,29.96,SSW,208,0.0,0.0,73,0.00,,---,0.00,VWS V13.01,2013-06-12 04:54:00,
2013-06-11 23:59:00,80.0,71.0,29.96,SSW,208,0.0,0.0,74,0.00,,---,0.00,VWS V13.01,2013-06-12 04:59:00,